Zurück zum Katalog

DELTA 1 DEB

YO

LostHEO
NORAD 37762·DEBRIS·🇺🇸 United States

Gestartet Jan 26, 1978 von Cape Canaveral Space Force Station

Loading…

Nächste Überflüge (nächste 24 Stunden)

TLE

VeraltetSource: Space-Track

Epoche: Jul 19, 2026, 11:12 UTC

1 37762U 78012E   26200.46694288  .00001695  00000-0  46659-3 0  9994
2 37762  29.4883 175.8071 6093562 212.4695  88.3197  3.88813075193811

Verfolge DELTA 1 DEB in Echtzeit mit AllMySat

Download on the App Store